DELTA 1 DEB

基本信息
目录编号:
10469
目录名称:
DELTA 1 DEB
国际标识:
1977-065EB
轨道中心:
EARTH
物体状态:
在轨
发射日期:
1977-07-14 UTC
轨道信息
数据来源: 国际轨道数据
星历时间: 2026-09-13T16:58:37+0800
半长轴: 7750.526km
偏心率: 0.0865185
轨道倾角: 29.123°
近地点辐角: 204.203°
升交点赤经: 323.011°
平近点角: 151.541°
近地点: 701.825km
远地点: 2042.953km
周期: 113.177分钟
每日圈数: 12.723483
详细信息
发射场:
AFETR
轨道高度:
LEO
数据来源:
AOE Integration Group
参考系:
TEME
时间系统:
UTC
历元类型:
SGP4
2D轨道图
3D轨道图
轨道高度分析图
轨道倾角分析图
轨道综合分析图
查看轨道综合分析图